Temp
-22 -22 -22 -22 -22 -22 -22 -22 -22 -22 -22 -22 -21 -21 -21 -22 -22 -23 -24 -25 -25 -25 -24 -24 -24 -23 -23 -23 -22 -22 -21 -20 -20 -20 -19 -19 -19 -18 -18 -18 -17 -17 -17
-23 -23 -22 -22 -22 -22 -22 -22 -22 -22 -21 -21 -21 -21 -21 -22 -23 -23 -25 -25 -25 -25 -25 -25 -25 -25 -24 -24 -23 -23 -22 -21 -21 -20 -20 -19 -19 -18 -18 -18 -18 -17 -17
-23 -23 -22 -22 -22 -22 -22 -22 -21 -21 -21 -21 -21 -21 -22 -22 -23 -24 -25 -25 -25 -25 -25 -25 -25 -25 -25 -25 -25 -24 -23 -23 -22 -21 -21 -20 -20 -19 -18 -18 -18 -18 -18
-23 -23 -23 -22 -22 -22 -22 -21 -21 -21 -21 -21 -21 -22 -22 -23 -24 -25 -25 -25 -25 -25 -25 -26 -26 -26 -26 -25 -25 -25 -24 -24 -23 -23 -22 -21 -21 -20 -19 -19 -18 -18 -18
-23 -23 -23 -23 -22 -22 -21 -21 -21 -21 -22 -22 -22 -22 -23 -23 -24 -25 -25 -25 -25 -25 -25 -25 -25 -25 -26 -25 -25 -25 -25 -25 -24 -24 -24 -23 -22 -21 -20 -20 -19 -19 -19
-23 -23 -23 -23 -22 -21 -21 -22 -21 -22 -22 -22 -23 -23 -23 -24 -24 -25 -25 -25 -25 -25 -25 -26 -26 -26 -26 -26 -25 -25 -26 -25 -25 -24 -24 -24 -24 -23 -22 -21 -21 -20 -20
-23 -23 -23 -22 -22 -21 -21 -22 -22 -22 -22 -22 -23 -23 -24 -24 -24 -25 -25 -25 -25 -25 -26 -26 -26 -26 -26 -26 -26 -26 -25 -25 -25 -25 -25 -24 -24 -24 -24 -23 -22 -22 -21
-23 -22 -22 -22 -21 -21 -22 -22 -22 -22 -23 -23 -23 -23 -24 -24 -24 -25 -25 -25 -26 -26 -26 -26 -26 -26 -26 -26 -26 -26 -26 -26 -26 -25 -25 -25 -25 -25 -25 -24 -24 -23 -23
-22 -22 -22 -21 -21 -22 -22 -22 -22 -23 -23 -23 -23 -24 -24 -24 -24 -25 -25 -25 -26 -26 -26 -26 -26 -26 -26 -26 -26 -26 -26 -26 -26 -26 -26 -26 -25 -25 -25 -25 -25 -24 -24
-22 -22 -21 -21 -21 -22 -22 -23 -23 -23 -23 -24 -24 -24 -24 -25 -25 -25 -25 -26 -26 -26 -26 -26 -26 -26 -26 -26 -26 -26 -26 -26 -26 -26 -26 -26 -26 -26 -26 -25 -25 -25 -25
-22 -21 -21 -22 -22 -22 -22 -23 -23 -23 -23 -24 -24 -25 -25 -25 -25 -26 -26 -26 -26 -27 -27 -27 -27 -27 -27 -27 -27 -27 -27 -27 -27 -27 -27 -27 -27 -27 -26 -26 -26 -26 -26
-22 -22 -22 -22 -22 -22 -22 -23 -23 -23 -24 -24 -25 -25 -25 -26 -26 -26 -26 -27 -27 -27 -28 -28 -28 -28 -28 -28 -28 -28 -28 -28 -28 -28 -27 -27 -27 -27 -27 -27 -27 -27 -27
-22 -22 -22 -22 -22 -22 -23 -23 -23 -24 -24 -24 -25 -25 -26 -26 -26 -27 -27 -27 -28 -28 -28 -28 -28 -29 -29 -28 -28 -28 -28 -28 -28 -28 -28 -28 -28 -28 -28 -28 -28 -28 -28
-22 -22 -22 -22 -22 -23 -23 -23 -24 -24 -24 -25 -25 -26 -26 -26 -27 -27 -27 -28 -28 -28 -29 -29 -29 -29 -29 -29 -29 -29 -29 -29 -29 -29 -29 -29 -29 -29 -29 -28 -28 -28 -28
-23 -23 -22 -23 -23 -23 -23 -24 -24 -25 -25 -25 -26 -26 -27 -27 -27 -28 -28 -28 -29 -29 -29 -29 -29 -29 -29 -29 -30 -30 -30 -30 -30 -30 -30 -30 -30 -30 -30 -30 -30 -29 -29
-23 -23 -23 -23 -23 -24 -24 -24 -25 -25 -26 -26 -26 -27 -27 -27 -28 -28 -29 -29 -29 -29 -29 -29 -29 -30 -30 -30 -31 -31 -31 -30 -30 -30 -30 -30 -30 -30 -30 -30 -30 -30 -30
-23 -23 -23 -23 -24 -24 -25 -25 -26 -26 -26 -27 -27 -27 -28 -28 -28 -29 -29 -29 -29 -30 -30 -30 -30 -31 -31 -31 -31 -31 -31 -31 -31 -31 -31 -31 -31 -31 -31 -31 -31 -31 -31
-24 -24 -24 -24 -25 -25 -25 -26 -26 -27 -27 -27 -28 -28 -28 -29 -29 -29 -29 -30 -30 -30 -30 -31 -31 -31 -31 -31 -31 -31 -31 -31 -31 -31 -31 -31 -31 -31 -31 -31 -32 -31 -31
-24 -24 -24 -25 -25 -26 -26 -27 -27 -27 -28 -28 -28 -28 -29 -29 -29 -30 -30 -30 -30 -31 -31 -31 -31 -31 -31 -31 -31 -31 -32 -32 -32 -32 -32 -32 -32 -32 -32 -32 -32 -32 -32
-24 -25 -25 -26 -26 -27 -27 -27 -27 -28 -28 -28 -29 -29 -29 -29 -30 -30 -30 -31 -31 -31 -31 -31 -31 -31 -32 -32 -32 -32 -32 -32 -33 -33 -33 -33 -33 -33 -33 -33 -33 -33 -33
-25 -26 -26 -27 -27 -27 -27 -28 -28 -28 -28 -29 -29 -29 -30 -30 -30 -30 -31 -31 -31 -31 -31 -32 -32 -32 -32 -32 -33 -33 -33 -33 -34 -34 -34 -34 -34 -34 -34 -34 -34 -34 -34
-26 -27 -27 -27 -27 -28 -28 -28 -28 -29 -29 -29 -29 -30 -30 -30 -31 -31 -31 -31 -31 -32 -32 -32 -33 -33 -33 -33 -34 -34 -34 -34 -34 -34 -35 -35 -35 -35 -35 -35 -35 -35 -35
-27 -27 -27 -27 -28 -28 -28 -28 -29 -29 -29 -30 -30 -30 -30 -31 -31 -31 -31 -32 -32 -32 -33 -33 -33 -33 -34 -34 -34 -34 -35 -35 -35 -35 -36 -36 -36 -36 -36 -36 -36 -36 -36
-27 -27 -28 -28 -28 -28 -29 -29 -29 -29 -30 -30 -30 -31 -31 -31 -31 -31 -32 -32 -32 -33 -33 -33 -34 -34 -34 -34 -35 -35 -36 -36 -36 -36 -37 -37 -37 -37 -37 -37 -37 -37 -37
-28 -28 -28 -28 -28 -29 -29 -29 -30 -30 -30 -30 -31 -31 -31 -31 -32 -32 -32 -33 -33 -33 -34 -34 -34 -34 -35 -35 -36 -36 -36 -37 -37 -37 -37 -38 -38 -38 -38 -38 -38 -38 -38
-28 -28 -28 -29 -29 -29 -29 -30 -30 -30 -30 -31 -31 -31 -31 -32 -32 -32 -33 -33 -34 -34 -34 -34 -35 -35 -36 -36 -37 -37 -37 -38 -38 -38 -38 -38 -38 -39 -39 -39 -39 -39 -39
Height
5622 5621 5620 5619 5617 5615 5612 5610 5606 5602 5599 5595 5591 5587 5583 5579 5576 5573 5570 5567 5564 5562 5559 5556 5553 5550 5548 5546 5543 5539 5536 5536 5537 5539 5541 5544 5546 5549 5552 5556 5559 5562 5566
5613 5612 5611 5610 5608 5606 5603 5600 5597 5595 5592 5588 5585 5581 5577 5574 5570 5566 5564 5561 5557 5555 5553 5550 5547 5545 5543 5540 5537 5533 5530 5528 5528 5529 5531 5534 5536 5538 5540 5543 5545 5548 5552
5605 5603 5602 5601 5599 5597 5595 5593 5591 5588 5586 5582 5579 5576 5572 5569 5565 5562 5559 5555 5553 5550 5548 5545 5542 5540 5538 5535 5532 5529 5526 5524 5521 5521 5522 5524 5525 5528 5529 5531 5533 5535 5538
5596 5595 5593 5592 5591 5589 5588 5587 5585 5582 5580 5577 5574 5571 5568 5564 5560 5557 5555 5552 5549 5546 5542 5540 5537 5534 5532 5529 5527 5525 5523 5520 5517 5515 5514 5515 5516 5517 5518 5519 5521 5523 5526
5588 5587 5585 5584 5583 5583 5582 5581 5579 5577 5575 5572 5569 5566 5563 5559 5557 5554 5551 5548 5545 5542 5539 5535 5533 5530 5527 5524 5521 5519 5517 5516 5513 5510 5508 5507 5507 5507 5508 5508 5509 5511 5513
5580 5579 5579 5578 5577 5577 5576 5575 5573 5571 5569 5566 5564 5561 5558 5555 5553 5550 5547 5543 5540 5537 5533 5530 5527 5524 5521 5518 5515 5512 5510 5508 5507 5505 5503 5500 5499 5498 5498 5499 5499 5500 5502
5572 5572 5572 5572 5572 5571 5570 5569 5567 5565 5563 5561 5558 5556 5553 5550 5547 5544 5541 5538 5535 5532 5528 5525 5522 5518 5515 5512 5509 5506 5504 5502 5499 5497 5496 5494 5492 5490 5490 5489 5489 5489 5489
5565 5566 5566 5566 5566 5566 5565 5563 5562 5560 5558 5556 5553 5550 5548 5545 5541 5538 5535 5532 5528 5525 5522 5518 5515 5512 5508 5505 5502 5500 5497 5495 5492 5490 5488 5487 5485 5482 5481 5481 5480 5479 5479
5559 5560 5561 5561 5561 5560 5559 5558 5556 5554 5553 5550 5547 5545 5542 5538 5535 5532 5529 5525 5522 5518 5514 5510 5507 5504 5501 5498 5495 5492 5489 5487 5484 5482 5480 5478 5476 5475 5472 5471 5471 5471 5470
5553 5554 5555 5555 5555 5554 5553 5552 5550 5549 5547 5544 5541 5538 5535 5531 5528 5524 5521 5518 5514 5510 5506 5503 5499 5495 5492 5489 5485 5482 5479 5477 5474 5472 5470 5468 5466 5464 5463 5462 5461 5460 5460
5547 5548 5549 5549 5548 5548 5547 5546 5545 5542 5540 5537 5534 5531 5528 5524 5520 5517 5513 5510 5506 5502 5498 5494 5490 5486 5482 5479 5476 5473 5470 5467 5464 5462 5459 5457 5456 5454 5452 5450 5449 5448 5448
5542 5542 5543 5543 5542 5541 5540 5540 5538 5536 5533 5530 5527 5524 5520 5516 5512 5509 5505 5501 5497 5493 5489 5484 5480 5476 5473 5469 5465 5462 5459 5456 5452 5450 5447 5445 5443 5441 5440 5438 5436 5435 5434
5536 5536 5536 5536 5536 5534 5533 5532 5530 5528 5525 5522 5519 5516 5512 5508 5504 5500 5496 5492 5488 5483 5479 5475 5470 5466 5462 5458 5454 5449 5445 5441 5438 5435 5432 5430 5428 5426 5425 5424 5422 5421 5420
5530 5529 5529 5529 5529 5527 5526 5524 5522 5520 5517 5514 5510 5507 5503 5499 5495 5491 5487 5482 5478 5473 5469 5464 5460 5455 5451 5446 5441 5436 5431 5426 5422 5418 5415 5412 5410 5409 5407 5406 5405 5404 5404
5523 5522 5522 5522 5521 5520 5518 5516 5513 5510 5508 5504 5501 5497 5494 5490 5485 5480 5476 5472 5467 5462 5457 5453 5448 5442 5437 5432 5427 5422 5418 5414 5410 5406 5402 5399 5396 5394 5392 5390 5388 5387 5386
5515 5515 5515 5515 5514 5512 5510 5507 5504 5501 5498 5495 5491 5488 5484 5479 5475 5470 5465 5460 5455 5451 5446 5440 5435 5429 5423 5418 5413 5409 5404 5400 5397 5393 5390 5387 5384 5380 5378 5375 5373 5371 5370
5508 5508 5508 5507 5506 5504 5501 5498 5495 5492 5489 5485 5481 5477 5473 5468 5463 5459 5454 5449 5444 5439 5433 5427 5421 5415 5410 5405 5400 5396 5391 5387 5383 5380 5376 5373 5369 5366 5363 5359 5357 5354 5352
5501 5501 5501 5499 5497 5495 5492 5489 5486 5482 5478 5474 5470 5466 5462 5457 5452 5447 5442 5436 5431 5425 5419 5413 5408 5402 5397 5392 5387 5382 5378 5373 5369 5365 5361 5357 5353 5350 5346 5343 5340 5338 5335
5495 5494 5493 5491 5488 5486 5483 5479 5476 5472 5468 5464 5459 5455 5450 5445 5440 5435 5430 5424 5417 5411 5406 5400 5394 5389 5383 5378 5373 5368 5363 5358 5353 5348 5344 5340 5336 5332 5329 5326 5323 5320 5318
5488 5486 5484 5482 5479 5476 5473 5470 5466 5461 5457 5453 5448 5443 5438 5433 5428 5422 5416 5410 5404 5398 5392 5386 5380 5374 5368 5362 5357 5352 5347 5341 5336 5331 5327 5323 5319 5315 5311 5307 5304 5301 5298
5479 5477 5475 5472 5469 5466 5463 5459 5455 5450 5446 5441 5436 5432 5427 5421 5416 5409 5403 5397 5391 5384 5378 5371 5365 5358 5353 5347 5341 5335 5330 5324 5319 5314 5310 5305 5301 5296 5292 5288 5284 5281 5277
5471 5468 5465 5463 5460 5456 5453 5449 5445 5440 5436 5431 5426 5420 5415 5409 5402 5396 5390 5383 5377 5370 5363 5356 5349 5343 5337 5331 5326 5320 5314 5308 5303 5298 5292 5287 5282 5277 5272 5268 5263 5259 5256
5462 5459 5456 5453 5450 5447 5443 5439 5434 5430 5425 5419 5414 5408 5402 5395 5389 5383 5376 5369 5362 5355 5348 5341 5335 5329 5323 5317 5311 5305 5298 5292 5286 5279 5274 5269 5264 5258 5253 5248 5243 5238 5234
5453 5450 5447 5444 5440 5436 5432 5428 5423 5418 5413 5408 5402 5396 5389 5383 5376 5369 5362 5355 5348 5341 5334 5328 5322 5316 5309 5302 5295 5288 5281 5274 5268 5262 5256 5251 5245 5239 5233 5227 5222 5217 5213
5444 5441 5437 5434 5430 5426 5421 5416 5412 5407 5401 5396 5389 5383 5377 5370 5363 5355 5348 5341 5334 5328 5321 5315 5308 5301 5294 5286 5279 5272 5266 5259 5252 5245 5239 5233 5227 5220 5214 5209 5203 5198 5194
5434 5430 5427 5423 5419 5415 5410 5405 5400 5395 5389 5383 5377 5370 5363 5356 5349 5342 5335 5328 5322 5315 5308 5301 5294 5286 5279 5271 5264 5257 5250 5243 5236 5230 5223 5216 5210 5204 5198 5192 5186 5180 5174
Wind_Speed
30 30 33 34 34 33 34 35 35 34 35 30 27 28 28 29 28 28 30 26 30 28 27 30 28 28 29 25 21 16 16 23 29 32 33 36 39 42 42 42 47 52 57
32 33 32 30 31 33 33 32 30 29 24 23 23 24 24 24 24 23 23 23 21 22 27 25 24 25 25 24 22 19 16 14 20 27 32 35 36 40 42 43 44 45 49
34 34 32 32 31 30 29 28 23 21 19 20 21 22 23 22 21 19 19 20 20 21 22 24 25 25 25 25 23 20 19 16 15 18 23 30 34 38 40 43 43 43 45
29 31 32 31 28 24 24 21 18 17 20 21 21 21 20 19 18 16 16 17 18 18 20 22 23 25 27 25 23 22 18 17 16 15 19 23 27 33 36 40 44 45 47
29 31 30 24 21 20 18 16 16 18 19 20 21 20 20 19 18 17 17 18 19 21 22 22 23 23 24 24 24 24 24 21 18 17 17 17 24 26 31 37 39 40 43
30 29 23 19 18 15 14 14 16 18 20 21 22 22 22 21 21 22 22 22 22 22 22 23 24 23 22 22 22 23 24 26 26 24 21 20 19 20 26 32 35 38 39
29 21 19 16 13 11 12 14 16 19 20 22 23 23 23 24 24 25 26 26 27 27 27 26 26 26 26 25 24 23 23 22 23 24 25 26 25 22 20 23 28 35 38
21 18 15 12 10 12 13 15 17 19 20 22 23 23 24 25 25 26 27 28 29 30 30 31 30 30 30 31 30 30 29 28 28 26 25 25 28 29 27 25 23 27 31
19 16 12 10 11 12 14 16 17 18 21 22 24 24 25 26 27 27 28 29 30 32 33 34 34 34 34 34 34 35 34 34 33 33 32 31 29 29 29 31 32 29 27
18 15 11 11 11 13 15 16 18 19 21 23 25 25 26 27 28 29 29 30 31 32 33 33 34 34 34 34 34 34 34 34 34 32 31 33 35 35 34 34 32 33 36
19 15 14 12 12 14 16 18 19 21 22 23 25 26 27 28 30 30 31 32 32 33 33 34 34 35 36 36 37 37 37 38 38 38 38 37 35 35 37 39 39 38 36
18 16 14 13 15 16 18 20 21 23 24 25 27 28 29 30 32 33 33 34 34 34 35 36 36 37 38 39 40 40 40 40 41 41 42 42 42 41 40 39 40 41 42
19 18 16 15 17 18 22 25 26 26 27 28 30 30 31 33 35 35 36 36 37 37 37 38 38 39 40 41 43 44 46 46 47 47 46 46 46 46 47 47 46 45 45
19 19 18 19 20 23 26 29 29 30 32 32 33 34 35 36 37 38 37 37 38 39 39 39 40 42 44 45 46 46 45 45 45 44 44 43 43 43 44 46 49 51 52
21 20 20 21 23 26 28 29 30 32 33 33 34 34 36 38 40 40 40 40 40 40 41 43 44 46 47 48 47 44 40 39 38 38 38 39 39 40 41 42 44 45 45
20 21 22 23 25 27 28 29 30 32 32 33 34 35 38 41 41 40 41 41 41 42 44 46 48 49 49 48 44 42 43 42 41 41 41 41 41 42 43 44 44 44 44
21 22 21 24 26 27 28 29 31 31 32 33 35 38 41 41 42 42 41 42 43 45 47 49 49 49 48 45 44 44 44 43 43 43 43 44 45 46 47 48 48 48 49
20 21 24 26 27 28 29 30 31 32 34 36 39 40 41 42 42 42 43 45 46 48 50 49 49 47 47 46 45 44 45 45 46 47 48 48 48 48 49 48 47 47 48
20 24 26 27 28 29 30 31 33 35 37 38 40 41 42 43 43 44 45 47 49 49 49 48 48 47 46 47 47 48 48 48 49 49 49 50 50 50 49 49 50 51 52
23 25 27 28 30 30 32 34 35 37 39 40 42 42 43 43 44 46 48 48 48 48 48 48 48 50 50 49 49 49 50 50 51 51 51 50 50 50 51 51 52 53 54
26 28 28 29 30 32 34 36 37 40 41 42 42 43 43 44 47 48 47 47 48 50 51 51 51 51 51 51 51 51 51 51 51 50 51 51 51 52 53 54 55 56 57
29 28 28 30 32 34 36 37 39 41 41 42 42 42 44 47 47 46 47 50 51 52 52 52 52 51 51 51 51 51 50 51 51 52 52 53 53 54 55 55 55 56 56
28 28 30 32 34 36 38 39 40 41 41 41 42 45 46 46 46 49 51 51 52 53 52 51 50 50 50 50 51 52 52 53 52 52 52 52 52 53 53 54 55 56 57
28 30 32 34 36 38 39 40 40 40 40 42 45 46 46 47 49 51 51 53 52 50 49 49 49 49 51 52 53 53 52 51 50 51 51 52 53 54 54 55 54 53 51
31 33 35 37 38 39 40 40 40 40 42 45 46 46 47 50 51 52 52 51 49 48 48 49 50 52 53 53 52 50 50 51 52 53 53 52 52 51 49 48 48 49 51
33 35 37 38 39 39 40 40 40 42 44 46 46 48 50 50 51 51 49 47 47 48 49 51 52 53 52 50 49 51 52 51 50 50 50 48 46 46 47 50 51 53 54
Wind_Direction
272 276 277 281 287 289 291 293 297 299 299 300 306 308 309 306 305 299 300 297 296 298 301 302 298 302 309 310 316 317 277 256 249 247 246 244 242 243 246 247 246 244 243
271 281 283 280 288 289 292 295 295 297 303 312 318 317 314 311 310 306 304 305 311 306 305 304 308 307 312 315 314 319 321 289 261 251 247 247 246 244 245 249 249 247 247
274 279 281 284 289 290 291 290 295 300 310 318 324 327 324 322 319 318 319 314 313 313 315 313 310 307 307 311 319 317 314 315 296 267 256 250 247 245 245 247 249 248 246
275 281 285 287 286 285 285 290 293 307 318 321 322 322 323 322 323 320 319 317 316 317 316 315 313 309 309 310 304 307 309 305 307 300 268 257 249 246 247 248 249 248 247
278 283 284 281 277 282 286 288 303 315 316 318 320 323 323 322 319 315 308 305 307 309 309 310 311 314 312 311 308 301 300 301 301 300 303 286 259 253 248 247 248 248 248
279 278 277 271 277 278 285 300 310 314 319 320 319 319 320 318 312 308 304 301 302 303 305 307 308 305 305 306 309 308 301 298 297 295 296 295 295 280 257 252 251 251 249
273 268 265 269 267 280 293 306 313 315 318 317 316 316 314 313 310 309 305 303 302 300 299 300 301 302 304 304 304 303 303 303 298 293 288 289 291 286 285 272 258 254 254
259 258 257 256 272 283 296 309 313 319 320 315 314 315 314 312 310 309 308 307 304 302 300 300 299 298 297 298 298 298 297 297 296 295 295 291 286 285 285 283 282 268 257
251 245 241 258 274 291 308 313 314 315 315 316 315 313 312 311 309 309 308 306 303 301 300 300 299 297 296 295 294 293 292 290 288 288 288 287 284 284 286 284 281 277 268
239 232 240 258 282 304 311 311 313 314 315 313 311 310 309 308 310 309 308 306 305 304 303 301 300 299 298 297 297 297 296 294 294 291 286 282 281 279 277 277 276 275 274
233 233 244 261 284 297 302 302 302 307 310 312 311 309 308 308 308 307 308 307 306 304 302 300 299 299 298 297 296 296 294 292 291 290 289 288 284 281 278 275 274 273 271
239 244 252 266 280 290 297 295 295 299 302 305 305 306 308 309 309 308 306 305 304 303 302 301 300 300 299 298 298 297 296 294 291 289 287 285 283 282 280 277 275 275 272
247 252 257 270 282 292 294 294 292 291 293 298 300 303 304 305 308 307 305 304 304 303 302 302 302 303 303 302 301 300 298 296 293 290 286 283 280 278 275 275 275 272 271
256 257 264 274 280 285 289 291 292 291 291 293 297 298 300 305 307 306 304 304 304 303 304 304 304 305 305 304 303 301 299 297 295 293 291 288 285 283 279 275 272 269 268
258 259 266 275 281 286 291 294 292 292 294 295 298 299 300 303 305 305 305 303 303 303 304 306 306 306 305 305 304 302 299 297 296 294 292 291 289 288 286 284 281 277 274
263 263 271 280 286 289 292 294 295 294 294 297 299 300 301 304 304 304 304 304 304 305 305 306 306 306 306 305 303 301 300 298 296 294 292 290 289 288 287 286 284 281 279
266 268 275 284 289 291 292 293 294 296 298 301 301 301 303 303 304 304 304 304 305 305 305 305 305 306 306 304 302 300 299 297 296 294 292 291 289 289 288 287 285 282 280
269 273 282 286 289 290 293 294 296 299 302 303 303 303 303 303 304 304 304 305 305 305 306 306 306 305 305 304 302 301 300 298 296 294 293 292 291 290 288 286 283 282 280
274 282 285 287 290 294 295 297 300 302 303 303 303 303 304 305 305 304 304 305 305 306 306 305 306 306 305 304 303 301 300 299 297 296 295 293 292 290 287 285 284 283 281
283 286 288 289 293 295 297 300 301 303 303 303 304 305 305 305 304 304 305 306 307 306 306 306 305 305 305 304 303 302 301 300 299 297 294 293 290 289 287 285 284 283 281
291 290 290 292 294 297 301 303 304 305 305 305 304 304 303 303 304 305 307 307 306 307 307 307 307 307 306 306 305 303 302 300 298 296 295 293 291 290 288 286 285 284 282
290 290 292 296 299 302 303 304 303 303 303 303 302 303 304 305 306 306 307 308 308 308 308 308 308 308 307 306 305 303 302 300 299 297 295 294 292 291 290 288 287 286 285
291 294 297 299 302 303 303 302 302 303 303 303 303 304 306 307 307 308 308 309 309 309 309 309 308 307 307 306 305 304 302 301 300 298 297 296 295 293 292 291 290 288 287
295 297 299 302 302 302 302 302 303 303 302 303 305 307 307 307 308 309 309 310 310 309 309 309 309 308 308 307 306 305 304 303 302 301 300 299 297 296 295 293 292 290 289
296 299 300 301 301 302 303 303 303 303 303 305 307 308 308 308 309 310 310 310 310 310 310 310 310 309 309 308 307 307 306 305 304 303 302 301 300 299 297 296 294 293 292
298 299 300 301 302 303 303 302 303 304 305 308 308 308 309 309 310 310 310 311 311 311 311 311 311 311 310 309 309 308 308 307 306 305 305 303 303 302 301 299 298 296 294